This demonstration page uses our WeatherBlox Daily Observations layout. Learn more.

Left ArrowRight Arrow

Hourly Observations for August 2, 2017

Temp ( °F °C ) Dew Point ( °F °C ) Humidity (%) Winds ( mph kmh ) Pressure ( in mb ) Visibility ( mi km ) Precip ( " mm )
12:15 am 00:15 Cloudy with Light Rain 67 19.5 65 18.3 93 93 Calm 30.06 1018 10 16 0.01 0.25
12:35 am 00:35 Cloudy with Rain 67 19.6 65 18.6 94 94 Calm 30.06 1018 10 16 0.01 0.25
12:55 am 00:55 Cloudy with Light Rain 68 19.8 65 18.2 91 91 Calm 30.06 1018 10 16 0.01 0.25
1:15 am 01:15 Cloudy 67 19.5 65 18.6 95 95 Calm 30.06 1018 10 16 0.00 0.00
1:35 am 01:35 Cloudy with Nearby Thunderstorms 67 19.5 66 18.9 96 96 Calm 30.06 1018 10 16 0.00 0.00
1:55 am 01:55 Cloudy 67 19.4 66 19 98 98 Calm 30.06 1018 10 16 0.00 0.00
2:15 am 02:15 Cloudy with Thunderstorms 67 19.3 66 18.8 97 97 Calm 30.06 1018 10 16 0.00 0.00
2:35 am 02:35 Cloudy with Nearby Thunderstorms 67 19.2 65 18.6 96 96 SW 7 11 30.06 1018 10 16 0.00 0.00
2:55 am 02:55 Cloudy 67 19.7 65 18.2 91 91 WSW 13 20 30.06 1018 7 11 0.03 0.76
3:15 am 03:15 Cloudy with Thunderstorms 65 18.5 63 17.1 92 92 W 9 15 30.06 1018 7 11 0.09 2.29
3:35 am 03:35 Cloudy with Strong Thunderstorms 64 17.7 61 16.3 92 92 W 14 22 30.06 1018 4 6 0.16 4.06
3:55 am 03:55 Cloudy with Rain 65 18.1 62 16.7 92 92 WSW 8 13 30.06 1018 10 16 0.18 4.57
4:15 am 04:15 Cloudy with Rain 64 17.8 63 17.2 96 96 SE 3 6 30.06 1018 10 16 0.01 0.25
4:35 am 04:35 Mostly Cloudy 64 17.9 63 17.3 96 96 Calm 30.06 1018 10 16 0.01 0.25
4:55 am 04:55 Partly Cloudy 64 18 64 17.5 97 97 Calm 30.06 1018 10 16 0.01 0.25
5:15 am 05:15 Clear 64 18 64 17.6 98 98 Calm 30.06 1018 7 11 0.00 0.00
5:35 am 05:35 Clear with Mist and Fog 64 17.8 64 17.6 99 99 Calm 30.06 1018 5 8 0.00 0.00
5:55 am 05:55 Clear 64 17.8 64 17.6 99 99 Calm 30.06 1018 7 11 0.00 0.00
6:15 am 06:15 Mostly Cloudy with Mist and Fog 63 17.3 63 17.1 99 99 Calm 30.06 1018 1 2 0.00 0.00
6:35 am 06:35 Mostly Cloudy with Fog 62 16.8 62 16.7 99 99 Calm 30.06 1018 1 1 0.00 0.00
6:55 am 06:55 Mostly Cloudy with Fog 61 16.1 61 16 99 99 Calm 30.06 1018 1 1 0.00 0.00
7:15 am 07:15 Mostly Cloudy with Fog 61 16.2 61 16.1 99 99 Calm 30.06 1018 1 1 0.00 0.00
7:35 am 07:35 Mostly Cloudy with Fog 62 16.8 62 16.8 100 100 Calm 30.06 1018 1 1 0.00 0.00
7:55 am 07:55 Sunny with Mist and Fog 64 17.6 64 17.6 100 100 Calm 30.06 1018 3 5 0.00 0.00
8:15 am 08:15 Sunny 65 18.2 65 18.1 99 99 Calm 30.06 1018 7 11 0.00 0.00
8:35 am 08:35 Sunny 66 19.1 65 18.6 97 97 Calm 30.06 1018 10 16 0.00 0.00
8:55 am 08:55 Sunny 67 19.6 65 18.5 93 93 S 6 9 30.06 1018 7 11 0.00 0.00
9:15 am 09:15 Sunny 68 20 65 18.6 92 92 S 5 7 30.06 1018 10 16 0.00 0.00
9:35 am 09:35 Partly Cloudy 69 20.7 65 18.6 88 88 S 8 13 30.06 1018 10 16 0.00 0.00
9:55 am 09:55 Sunny 70 21.1 65 18.6 86 86 SSW 7 11 30.06 1018 10 16 0.00 0.00
10:15 am 10:15 Sunny 70 21.3 65 18.6 85 85 SSW 7 11 30.06 1018 10 16 0.00 0.00
10:35 am 10:35 Sunny 71 21.9 66 18.9 83 83 SSW 7 11 30.03 1017 10 16 0.00 0.00
10:55 am 10:55 Sunny 73 22.5 66 19.1 81 81 SW 8 13 30.03 1017 10 16 0.00 0.00
11:15 am 11:15 Sunny 73 22.7 66 19.1 80 80 SSW 8 13 30.03 1017 10 16 0.00 0.00
11:35 am 11:35 Sunny 74 23.2 67 19.3 79 79 SSW 6 9 30.03 1017 10 16 0.00 0.00
11:55 am 11:55 Sunny 74 23.5 65 18.6 74 74 Calm 30.03 1017 10 16 0.00 0.00
12:15 pm 12:15 Sunny 75 24 66 18.7 72 72 WSW 5 7 30.03 1017 10 16 0.00 0.00
12:35 pm 12:35 Sunny 76 24.4 67 19.4 74 74 SSW 5 7 30.03 1017 10 16 0.00 0.00
12:55 pm 12:55 Sunny 76 24.6 66 19 71 71 SW 6 9 30.03 1017 10 16 0.00 0.00
1:15 pm 13:15 Sunny 77 25.2 67 19.2 69 69 WSW 5 7 30.03 1017 10 16 0.00 0.00
1:35 pm 13:35 Partly Cloudy 78 25.4 67 19.4 69 69 WSW 5 7 30.03 1017 10 16 0.00 0.00
1:55 pm 13:55 Partly Cloudy 78 25.7 66 19.1 67 67 Calm 30.03 1017 10 16 0.00 0.00
2:15 pm 14:15 Partly Cloudy 80 26.4 67 19.7 67 67 W 3 6 30.03 1017 10 16 0.00 0.00
2:35 pm 14:35 Partly Cloudy 80 26.9 68 20.2 67 67 W 8 13 30.03 1017 10 16 0.00 0.00
2:55 pm 14:55 Partly Cloudy 78 25.6 67 19.5 69 69 W 6 9 30.03 1017 10 16 0.00 0.00
3:15 pm 15:15 Sunny 80 26.8 68 19.8 66 66 WSW 6 9 30.03 1017 10 16 0.00 0.00
3:35 pm 15:35 Partly Cloudy 78 25.8 67 19.3 67 67 WSW 6 9 30.03 1017 10 16 0.00 0.00
3:55 pm 15:55 Sunny 80 26.8 68 19.8 66 66 W 9 15 30.00 1016 10 16 0.00 0.00
4:15 pm 16:15 Sunny 80 26.7 67 19.5 65 65 W 5 7 30.00 1016 10 16 0.00 0.00
4:35 pm 16:35 Partly Cloudy 79 26 67 19.2 66 66 WNW 3 6 30.00 1016 10 16 0.00 0.00
4:55 pm 16:55 Mostly Cloudy 78 25.5 68 19.9 71 71 W 8 13 30.00 1016 10 16 0.00 0.00
5:15 pm 17:15 Cloudy 75 24 67 19.4 76 76 W 9 15 30.00 1016 10 16 0.00 0.00
5:35 pm 17:35 Mostly Cloudy 77 24.9 64 17.7 64 64 W 5 7 30.00 1016 10 16 0.00 0.00
5:55 pm 17:55 Mostly Cloudy 80 26.6 66 18.9 63 63 W 6 9 30.00 1016 10 16 0.00 0.00
6:15 pm 18:15 Partly Cloudy 79 26.3 65 18.4 62 62 Calm 30.00 1016 10 16 0.00 0.00
6:35 pm 18:35 Sunny 79 26.2 65 18.3 62 62 WSW 5 7 30.00 1016 10 16 0.00 0.00
6:55 pm 18:55 Sunny 79 26 65 18.3 63 63 W 5 7 30.00 1016 10 16 0.00 0.00
7:15 pm 19:15 Sunny 78 25.7 64 18 63 63 WSW 5 7 30.00 1016 10 16 0.00 0.00
7:35 pm 19:35 Sunny 78 25.7 66 18.7 65 65 Calm 30.00 1016 10 16 0.00 0.00
7:55 pm 19:55 Partly Cloudy 77 25.2 66 19.1 69 69 Calm 30.00 1016 10 16 0.00 0.00
8:15 pm 20:15 Partly Cloudy 77 25.1 67 19.5 71 71 Calm 30.00 1016 10 16 0.00 0.00
8:35 pm 20:35 Sunny 76 24.2 68 20.1 78 78 Calm 30.00 1016 10 16 0.00 0.00
8:55 pm 20:55 Sunny 74 23.1 69 20.6 86 86 Calm 30.00 1016 10 16 0.00 0.00
9:15 pm 21:15 Partly Cloudy 72 22.1 69 20.6 91 91 Calm 30.03 1017 10 16 0.00 0.00
9:35 pm 21:35 Partly Cloudy 71 21.5 69 20.4 93 93 Calm 30.06 1018 10 16 0.00 0.00
9:55 pm 21:55 Clear 70 21.1 68 20.2 95 95 Calm 30.06 1018 10 16 0.00 0.00
10:15 pm 22:15 Clear 69 20.7 68 20.2 97 97 Calm 30.06 1018 10 16 0.00 0.00
10:35 pm 22:35 Clear 69 20.3 67 19.7 96 96 Calm 30.06 1018 10 16 0.00 0.00
10:55 pm 22:55 Clear 68 20.2 68 19.8 98 98 ESE 5 7 30.06 1018 7 11 0.00 0.00
11:15 pm 23:15 Clear 69 20.5 67 19.2 92 92 SSE 5 7 30.06 1018 10 16 0.00 0.00
11:35 pm 23:35 Clear 69 20.6 66 18.7 89 89 S 5 7 30.06 1018 10 16 0.00 0.00
11:55 pm 23:55 Clear 68 20 65 18.6 92 92 Calm 30.06 1018 10 16 0.00 0.00

Powered by AerisWeather